CW1734 Weather Reports


Display with metric or nautical units.
time (UTC)temp
F
wind
direction
speed
MPH
gust
MPH
rain 1hr
in
rain 24hr
in
rain mn
in
humidity
%
barometer
mb
20210513100903 53 103 5.0 20.0 0.00 0.01 0.01 83 1003.4
20210513100403 52 59 8.0 16.0 0.00 0.01 0.01 83 1003.4
20210513095903 52 114 3.0 14.0 0.00 0.01 0.01 85 1003.4
20210513095403 52 103 7.0 15.0 0.00 0.01 0.01 84 1003.4
20210513094904 52 90 9.0 16.0 0.00 0.01 0.01 85 1003.4
20210513094404 52 95 5.0 13.0 0.00 0.01 0.01 85 1003.4
20210513093904 52 85 7.0 16.0 0.00 0.01 0.01 84 1003.5
20210513093404 52 103 5.0 12.0 0.00 0.01 0.01 86 1003.2
20210513092903 51 93 7.0 16.0 0.00 0.01 0.01 86 1003.2
20210513092403 51 85 7.0 14.0 0.00 0.01 0.01 87 1003.2
20210513091903 51 146 5.0 16.0 0.00 0.01 0.01 87 1003.2
20210513091403 51 112 5.0 14.0 0.00 0.01 0.01 87 1003.2
20210513090903 51 105 3.0 15.0 0.00 0.01 0.01 87 1003.2
20210513090404 51 94 6.0 18.0 0.00 0.01 0.01 87 1003.2
20210513085904 51 102 8.0 18.0 0.00 0.01 0.01 87 1003.2
20210513085403 52 79 8.0 16.0 0.00 0.01 0.01 86 1003.2
20210513084903 52 87 10.0 18.0 0.00 0.01 0.01 86 1003.0
20210513084403 52 81 7.0 12.0 0.00 0.01 0.01 88 1003.0
20210513083904 52 79 5.0 12.0 0.00 0.01 0.01 88 1003.0
20210513083403 51 85 5.0 12.0 0.00 0.01 0.01 88 1003.0
20210513082904 51 103 7.0 15.0 0.00 0.01 0.01 89 1003.0
20210513082404 51 83 7.0 18.0 0.00 0.01 0.01 89 1003.0
20210513081903 51 95 6.0 12.0 0.00 0.01 0.01 89 1003.0
20210513081403 51 99 6.0 17.0 0.00 0.01 0.01 89 1003.0
20210513080903 50 90 5.0 14.0 0.00 0.01 0.01 89 1003.0
20210513080403 50 114 9.0 20.0 0.00 0.01 0.01 88 1002.9
20210513075904 51 84 3.0 20.0 0.00 0.01 0.01 88 1002.9
20210513075403 51 86 8.0 14.0 0.00 0.01 0.01 87 1002.5
20210513074903 51 97 6.0 17.0 0.00 0.01 0.01 88 1002.5
20210513074403 51 83 5.0 14.0 0.00 0.01 0.01 88 1002.5
20210513073903 51 96 3.0 12.0 0.00 0.01 0.01 89 1002.5
20210513073404 51 108 5.0 12.0 0.00 0.01 0.01 89 1002.5
20210513072904 51 79 5.0 12.0 0.00 0.01 0.01 90 1002.5
20210513072403 51 84 4.0 10.0 0.00 0.01 0.01 91 1002.5
20210513071904 50 104 5.0 14.0 0.00 0.01 0.01 91 1002.5
20210513071403 50 80 4.0 13.0 0.00 0.01 0.01 91 1002.5
20210513070903 51 84 4.0 12.0 0.00 0.01 0.01 91 1002.5
20210513070403 51 89 3.0 7.0 0.00 0.01 0.01 92 1002.4
20210513065903 51 115 3.0 9.0 0.00 0.01 0.01 92 1002.2
20210513065403 50 80 3.0 12.0 0.00 0.01 0.01 92 1002.2
20210513064904 50 83 7.0 17.0 0.00 0.01 0.01 92 1002.2
20210513064403 50 72 6.0 15.0 0.00 0.01 0.01 92 1002.2
20210513063904 50 80 5.0 12.0 0.00 0.01 0.01 93 1002.3
20210513063404 50 82 6.0 12.0 0.00 0.01 0.01 93 1002.3
20210513062903 50 90 6.0 14.0 0.00 0.01 0.01 93 1002.2
20210513062403 50 63 5.0 10.0 0.00 0.01 0.01 93 1002.2
20210513061904 49 69 5.0 12.0 0.00 0.01 0.01 93 1002.2
20210513061403 49 88 5.0 12.0 0.00 0.01 0.01 92 1002.3
20210513060903 49 66 9.0 17.0 0.00 0.01 0.01 92 1002.3
20210513060403 49 65 9.0 18.0 0.00 0.01 0.01 91 1002.3
20210513055904 49 59 7.0 13.0 0.00 0.01 0.01 91 1002.3
20210513055403 49 64 5.0 15.0 0.00 0.01 0.01 91 1002.3
20210513054903 49 49 6.0 12.0 0.00 0.01 0.01 90 1002.3
20210513054403 49 72 6.0 15.0 0.00 0.01 0.01 90 1002.3
20210513053903 49 63 5.0 14.0 0.00 0.01 0.01 90 1002.3
20210513053403 49 59 6.0 15.0 0.00 0.01 0.01 89 1002.3
20210513052903 49 86 5.0 12.0 0.00 0.01 0.01 89 1002.5
20210513052403 49 73 6.0 13.0 0.00 0.01 0.01 89 1002.5
20210513051903 48 68 6.0 13.0 0.00 0.01 0.01 90 1002.6
20210513051403 49 70 6.0 13.0 0.00 0.01 0.01 90 1002.6
20210513050903 49 66 7.0 9.0 0.00 0.01 0.01 90 1002.6
20210513050404 49 45 5.0 14.0 0.00 0.01 0.01 90 1002.6
20210513045903 49 68 5.0 10.0 0.00 0.01 0.01 90 1002.6
20210513045403 49 76 5.0 10.0 0.00 0.01 0.01 90 1002.6
20210513044903 49 62 5.0 12.0 0.00 0.01 0.01 90 1002.6
20210513044403 49 64 3.0 10.0 0.00 0.01 0.01 91 1002.6
20210513043903 49 67 4.0 10.0 0.00 0.01 0.01 91 1002.6
20210513043403 48 70 4.0 10.0 0.00 0.01 0.01 91 1002.6
20210513042903 48 67 3.0 8.0 0.00 0.01 0.01 91 1002.7
20210513042404 49 80 5.0 12.0 0.00 0.01 0.01 91 1002.9
20210513041904 49 73 5.0 8.0 0.00 0.01 0.01 92 1002.9
20210513041403 49 67 6.0 12.0 0.00 0.01 0.01 92 1003.0
20210513040903 49 75 5.0 8.0 0.00 0.01 0.01 92 1003.0
20210513040404 49 82 6.0 13.0 0.00 0.01 0.01 92 1003.0
20210513035903 49 84 6.0 10.0 0.01 0.01 0.01 92 1003.0
20210513035404 49 86 3.0 8.0 0.01 0.01 0.01 92 1003.1
20210513034903 49 83 3.0 7.0 0.01 0.01 0.01 92 1003.1
20210513034403 49 70 3.0 7.0 0.01 0.01 0.01 92 1003.1
20210513033903 49 72 3.0 7.0 0.01 0.01 0.01 92 1003.1
20210513033403 49 81 3.0 7.0 0.01 0.01 0.01 92 1003.1
20210513032903 49 66 3.0 8.0 0.01 0.01 0.01 92 1003.1
20210513032403 49 79 5.0 8.0 0.01 0.01 0.01 92 1003.1
20210513031903 49 73 2.0 7.0 0.01 0.01 0.01 92 1003.1
20210513031403 49 92 3.0 8.0 0.01 0.01 0.01 92 1003.1
20210513030904 49 64 3.0 6.0 0.01 0.01 0.01 92 1003.2
20210513030403 49 88 4.0 8.0 0.01 0.01 0.01 92 1003.2
20210513025904 49 83 4.0 10.0 0.00 0.00 0.00 92 1003.2
20210513025403 49 58 3.0 9.0 0.00 0.00 0.00 92 1003.2
20210513024903 49 103 3.0 6.0 0.00 0.00 0.00 91 1003.2
20210513024403 49 67 4.0 8.0 0.00 0.00 0.00 91 1003.2
20210513023903 49 76 2.0 8.0 0.00 0.00 0.00 91 1003.4
20210513023404 49 83 5.0 8.0 0.00 0.00 0.00 91 1003.4
20210513022903 49 108 1.0 3.0 0.00 0.00 0.00 91 1003.4
20210513022403 49 108 2.0 7.0 0.00 0.00 0.00 91 1003.4
20210513021903 49 93 3.0 8.0 0.00 0.00 0.00 91 1003.4
20210513021403 49 90 4.0 8.0 0.00 0.00 0.00 91 1003.4
20210513020904 49 92 6.0 12.0 0.00 0.00 0.00 91 1003.5
20210513020403 49 92 4.0 8.0 0.00 0.00 0.00 90 1003.5
20210513015904 49 69 6.0 13.0 0.00 0.00 0.00 90 1003.5
20210513015403 50 110 3.0 8.0 0.00 0.00 0.00 90 1003.5
20210513014904 50 108 5.0 10.0 0.00 0.00 0.00 90 1003.5
20210513014404 50 83 4.0 12.0 0.00 0.00 0.00 90 1003.5
20210513013903 50 88 3.0 12.0 0.00 0.00 0.00 90 1003.5
20210513013405 50 82 6.0 12.0 0.00 0.00 0.00 89 1003.7
20210513012904 50 157 3.0 7.0 0.00 0.00 0.00 89 1003.7
20210513012404 51 78 3.0 13.0 0.00 0.00 0.00 88 1003.7
20210513011903 51 111 5.0 15.0 0.00 0.00 0.00 87 1003.7
20210513011403 52 109 4.0 12.0 0.00 0.00 0.00 87 1003.7
20210513010903 52 109 6.0 15.0 0.00 0.00 0.00 86 1003.6
20210513010403 52 86 7.0 12.0 0.00 0.00 0.00 86 1003.6
20210513005903 53 95 6.0 15.0 0.00 0.00 0.00 86 1003.6
20210513005403 53 74 5.0 15.0 0.00 0.00 0.00 86 1003.7
20210513004904 53 80 5.0 12.0 0.00 0.00 0.00 86 1003.9
20210513004403 53 82 6.0 13.0 0.00 0.00 0.00 85 1003.9
20210513003904 53 71 5.0 10.0 0.00 0.00 0.00 86 1003.9
20210513003403 53 76 3.0 12.0 0.00 0.00 0.00 85 1003.9
20210513002904 53 85 4.0 12.0 0.00 0.00 0.00 85 1003.9
20210513002403 53 94 6.0 12.0 0.00 0.00 0.00 85 1003.9
20210513001904 53 66 5.0 14.0 0.00 0.00 0.00 85 1003.9
20210513001403 53 82 6.0 12.0 0.00 0.00 0.00 85 1003.9
20210513000904 53 64 5.0 15.0 0.00 0.00 0.00 85 1004.5
20210513000405 53 83 3.0 12.0 0.00 0.00 0.00 85 1004.5
20210512235904 53 90 9.0 13.0 0.00 0.00 0.00 85 1004.5
20210512235404 53 85 6.0 12.0 0.00 0.00 0.00 85 1004.5
20210512234903 53 82 5.0 13.0 0.00 0.00 0.00 85 1004.5
20210512234403 53 83 3.0 8.0 0.00 0.00 0.00 85 1004.5
20210512233904 53 61 5.0 9.0 0.00 0.00 0.00 85 1004.5
20210512233403 53 73 3.0 8.0 0.00 0.00 0.00 84 1004.5
20210512232904 53 73 6.0 13.0 0.00 0.00 0.00 84 1004.9
20210512232404 53 92 4.0 12.0 0.00 0.00 0.00 84 1004.9
20210512231904 53 66 4.0 13.0 0.00 0.00 0.00 84 1004.9
20210512231403 53 75 6.0 12.0 0.00 0.00 0.00 84 1004.9
20210512230904 53 74 7.0 14.0 0.00 0.00 0.00 84 1004.9
20210512230403 53 70 4.0 10.0 0.00 0.00 0.00 84 1004.9
20210512225904 53 80 3.0 12.0 0.00 0.00 0.00 83 1004.9
20210512225404 53 75 5.0 12.0 0.00 0.00 0.00 83 1004.9
20210512224903 53 61 4.0 12.0 0.00 0.00 0.00 83 1004.9
20210512224404 53 52 4.0 10.0 0.00 0.00 0.00 83 1004.9
20210512223904 53 64 5.0 10.0 0.00 0.00 0.00 82 1004.9
20210512223404 53 63 6.0 16.0 0.00 0.00 0.00 82 1005.2
20210512222903 53 65 6.0 17.0 0.00 0.00 0.00 82 1005.2
20210512222404 53 64 5.0 9.0 0.00 0.00 0.00 82 1005.2
20210512221903 53 73 5.0 12.0 0.00 0.00 0.00 82 1005.2
20210512221404 53 89 6.0 13.0 0.00 0.00 0.00 82 1005.2
20210512220904 53 70 3.0 10.0 0.00 0.00 0.00 81 1005.2
20210512220403 53 69 7.0 14.0 0.00 0.00 0.00 81 1005.1
20210512215904 53 72 5.0 9.0 0.00 0.00 0.00 81 1005.5
20210512215403 53 72 7.0 13.0 0.00 0.00 0.00 81 1005.5
20210512214903 53 88 5.0 8.0 0.00 0.00 0.00 81 1005.5
20210512214404 53 73 3.0 10.0 0.00 0.00 0.00 81 1005.5
20210512213904 53 64 6.0 12.0 0.00 0.00 0.00 80 1005.5
20210512213404 53 87 3.0 8.0 0.00 0.00 0.00 80 1005.5
20210512212904 53 78 3.0 8.0 0.00 0.00 0.00 79 1005.8
20210512212403 53 76 5.0 12.0 0.00 0.00 0.00 79 1005.8
20210512211904 53 74 3.0 12.0 0.00 0.00 0.00 78 1005.8
20210512211403 53 95 2.0 7.0 0.00 0.00 0.00 78 1005.8
20210512210904 53 62 4.0 15.0 0.00 0.00 0.00 78 1005.9
20210512210403 53 68 2.0 8.0 0.00 0.00 0.00 78 1005.9
20210512205904 53 73 5.0 10.0 0.00 0.00 0.00 78 1006.0
20210512205403 53 102 3.0 12.0 0.00 0.00 0.00 78 1006.0
20210512204904 53 81 5.0 12.0 0.00 0.00 0.00 77 1006.2
20210512204404 52 81 5.0 7.0 0.00 0.00 0.00 77 1006.2
20210512203905 52 87 7.0 15.0 0.00 0.00 0.00 78 1006.2
20210512203405 52 79 7.0 13.0 0.00 0.00 0.00 78 1006.2
20210512202904 52 87 5.0 12.0 0.00 0.00 0.00 78 1006.2
20210512202404 52 89 5.0 12.0 0.00 0.00 0.00 78 1006.2
20210512201904 52 76 4.0 10.0 0.00 0.00 0.00 78 1006.2
20210512201404 52 63 4.0 10.0 0.00 0.00 0.00 77 1006.2
20210512200904 52 70 5.0 9.0 0.00 0.00 0.00 77 1006.2
20210512200403 53 71 3.0 10.0 0.00 0.00 0.00 77 1006.3
20210512195903 53 59 5.0 8.0 0.00 0.00 0.00 77 1006.3
20210512195404 53 55 3.0 9.0 0.00 0.00 0.00 77 1006.3
20210512194905 52 78 5.0 10.0 0.00 0.00 0.00 77 1006.3
20210512194405 52 99 3.0 9.0 0.00 0.00 0.00 77 1006.3
20210512193902 52 90 7.0 14.0 0.00 0.00 0.00 78 1006.3
20210512193403 53 89 3.0 12.0 0.00 0.00 0.00 78 1006.3
20210512192902 52 60 5.0 9.0 0.00 0.00 0.00 78 1006.3
20210512192402 52 94 5.0 12.0 0.00 0.00 0.00 78 1006.3
20210512191902 52 76 5.0 10.0 0.00 0.00 0.00 78 1006.3
20210512191402 52 90 3.0 9.0 0.00 0.00 0.00 78 1006.3
20210512190902 53 86 4.0 12.0 0.00 0.00 0.00 78 1006.3
20210512190404 53 74 5.0 8.0 0.00 0.00 0.00 78 1006.3
20210512185903 53 72 5.0 12.0 0.00 0.00 0.00 78 1006.2
20210512185402 53 114 4.0 8.0 0.00 0.00 0.00 78 1006.2
20210512184902 53 77 4.0 12.0 0.00 0.00 0.00 77 1006.2
20210512184402 53 85 3.0 8.0 0.00 0.00 0.00 77 1006.2
20210512183902 53 74 7.0 12.0 0.00 0.00 0.00 76 1006.3
20210512183402 53 89 6.0 12.0 0.00 0.00 0.00 76 1006.3
20210512182903 53 74 7.0 12.0 0.00 0.00 0.00 76 1006.3
20210512182403 53 82 5.0 12.0 0.00 0.00 0.00 76 1006.3
20210512181902 53 72 6.0 15.0 0.00 0.00 0.00 75 1006.4
20210512181402 53 66 6.0 12.0 0.00 0.00 0.00 75 1006.4
20210512180902 53 69 4.0 12.0 0.00 0.00 0.00 76 1006.5
20210512180402 53 85 5.0 10.0 0.00 0.00 0.00 77 1006.5
20210512175903 53 70 5.0 8.0 0.00 0.00 0.00 77 1006.6
20210512175402 53 74 5.0 12.0 0.00 0.00 0.00 78 1006.6
20210512174902 53 77 5.0 10.0 0.00 0.00 0.00 79 1006.7
20210512174404 53 69 5.0 12.0 0.00 0.00 0.00 78 1006.7
20210512173902 53 71 3.0 12.0 0.00 0.00 0.00 78 1006.7
20210512173403 53 81 4.0 10.0 0.00 0.00 0.00 78 1006.7
20210512172903 53 86 5.0 8.0 0.00 0.00 0.00 78 1007.0
20210512172402 53 81 5.0 12.0 0.00 0.00 0.00 78 1007.0
20210512171402 53 84 4.0 10.0 0.00 0.00 0.00 77 1007.0
20210512170903 54 71 4.0 8.0 0.00 0.00 0.00 79 1007.0
20210512170402 54 87 5.0 12.0 0.00 0.00 0.00 78 1007.0
20210512165902 53 77 5.0 15.0 0.00 0.00 0.00 79 1007.0
20210512165402 53 108 6.0 12.0 0.00 0.00 0.00 79 1007.0
20210512164903 54 77 5.0 13.0 0.00 0.00 0.00 79 1007.0
20210512164403 54 78 5.0 8.0 0.00 0.00 0.00 79 1007.0
20210512163902 54 87 5.0 12.0 0.00 0.00 0.00 79 1007.1
20210512163403 54 87 6.0 13.0 0.00 0.00 0.00 77 1007.1
20210512162903 54 66 6.0 12.0 0.00 0.00 0.00 76 1007.2
20210512162403 54 76 5.0 9.0 0.00 0.00 0.00 76 1007.3
20210512161903 54 71 4.0 7.0 0.00 0.00 0.00 75 1007.3
20210512161402 54 94 3.0 6.0 0.00 0.00 0.00 74 1007.3
20210512160903 54 75 4.0 8.0 0.00 0.00 0.00 72 1007.3
20210512160402 55 95 3.0 7.0 0.00 0.00 0.00 73 1007.3
20210512155903 54 48 3.0 12.0 0.00 0.00 0.00 73 1007.8
20210512155403 54 84 5.0 12.0 0.00 0.00 0.00 73 1007.8
20210512154903 54 80 4.0 8.0 0.00 0.00 0.00 75 1007.8
20210512154402 54 73 3.0 9.0 0.00 0.00 0.00 75 1007.8
20210512153903 54 108 3.0 12.0 0.00 0.00 0.00 75 1007.8
20210512153402 54 96 4.0 9.0 0.00 0.00 0.00 75 1007.8
20210512152903 54 104 5.0 12.0 0.00 0.00 0.00 75 1007.8
20210512152402 54 69 3.0 7.0 0.00 0.00 0.00 75 1007.8
20210512151903 54 92 5.0 13.0 0.00 0.00 0.00 73 1007.8
20210512151402 54 107 5.0 9.0 0.00 0.00 0.00 73 1007.8
20210512150902 55 86 2.0 9.0 0.00 0.00 0.00 73 1007.8
20210512150402 55 113 4.0 12.0 0.00 0.00 0.00 73 1007.8
20210512145902 55 105 6.0 12.0 0.00 0.00 0.00 72 1007.8
20210512145403 56 102 5.0 13.0 0.00 0.00 0.00 70 1007.8
20210512144903 56 129 7.0 14.0 0.00 0.00 0.00 69 1007.8
20210512144403 57 127 5.0 10.0 0.00 0.00 0.00 66 1007.8
20210512143903 58 111 6.0 12.0 0.00 0.00 0.00 68 1007.7
20210512143403 58 110 5.0 13.0 0.00 0.00 0.00 65 1007.7
20210512142902 58 117 6.0 12.0 0.00 0.00 0.00 66 1007.9
20210512142402 59 76 4.0 13.0 0.00 0.00 0.00 67 1007.9
20210512141903 59 152 5.0 14.0 0.00 0.00 0.00 67 1007.9
20210512141403 58 115 6.0 12.0 0.00 0.00 0.00 64 1008.0
20210512140902 59 139 5.0 12.0 0.00 0.00 0.00 65 1008.0
20210512140403 59 121 5.0 12.0 0.00 0.00 0.00 66 1008.0
20210512135903 59 95 5.0 12.0 0.00 0.00 0.00 65 1008.0
20210512135403 59 102 4.0 12.0 0.00 0.00 0.00 64 1008.0
20210512134903 59 54 3.0 9.0 0.00 0.00 0.00 65 1008.0
20210512134403 58 154 4.0 10.0 0.00 0.00 0.00 64 1008.0
20210512133903 58 84 4.0 9.0 0.00 0.00 0.00 64 1008.0
20210512133402 58 99 4.0 12.0 0.00 0.00 0.00 62 1008.0
20210512132903 58 65 6.0 9.0 0.00 0.00 0.00 60 1008.2
20210512132403 58 123 5.0 12.0 0.00 0.00 0.00 64 1008.2
20210512131902 58 164 4.0 8.0 0.00 0.00 0.00 65 1008.2
20210512131403 58 63 3.0 8.0 0.00 0.00 0.00 64 1008.2
20210512130903 58 82 5.0 12.0 0.00 0.00 0.00 65 1008.2
20210512130403 59 108 6.0 12.0 0.00 0.00 0.00 66 1008.2
20210512125903 59 139 7.0 13.0 0.00 0.00 0.00 65 1008.2
20210512125403 59 97 5.0 15.0 0.00 0.00 0.00 66 1008.2
20210512124903 59 126 6.0 9.0 0.00 0.00 0.00 65 1008.2
20210512124402 57 103 5.0 14.0 0.00 0.00 0.00 68 1008.3
20210512123903 57 143 5.0 12.0 0.00 0.00 0.00 69 1008.3
20210512123403 58 113 4.0 8.0 0.00 0.00 0.00 65 1008.3
20210512122903 59 175 5.0 12.0 0.00 0.00 0.00 61 1008.3
20210512122403 59 190 7.0 12.0 0.00 0.00 0.00 64 1008.3
20210512121902 60 143 3.0 8.0 0.00 0.00 0.00 68 1008.5
20210512121403 60 156 4.0 9.0 0.00 0.00 0.00 65 1008.5
20210512120903 58 129 5.0 9.0 0.00 0.00 0.00 67 1008.5
20210512120402 57 153 4.0 14.0 0.00 0.00 0.00 66 1008.5
20210512115903 59 191 5.0 9.0 0.00 0.00 0.00 66 1008.5
20210512115403 58 136 4.0 13.0 0.00 0.00 0.00 65 1008.5
20210512114903 58 206 6.0 12.0 0.00 0.00 0.00 67 1008.5
20210512114403 58 124 7.0 12.0 0.00 0.00 0.00 66 1008.5
20210512113903 57 199 5.0 8.0 0.00 0.00 0.00 70 1008.6
20210512113402 56 183 6.0 13.0 0.00 0.00 0.00 70 1008.6
20210512112903 56 191 5.0 10.0 0.00 0.00 0.00 69 1008.6
20210512112403 57 215 5.0 7.0 0.00 0.00 0.00 67 1008.5
20210512111902 57 190 3.0 7.0 0.00 0.00 0.00 69 1008.5
20210512111404 58 108 4.0 9.0 0.00 0.00 0.00 69 1008.6
20210512110903 59 209 4.0 10.0 0.00 0.00 0.00 71 1008.6
20210512110403 58 205 5.0 12.0 0.00 0.00 0.00 69 1008.6
20210512105903 56 118 4.0 12.0 0.00 0.00 0.00 69 1008.8
20210512105404 58 211 7.0 13.0 0.00 0.00 0.00 69 1008.8
20210512104903 56 214 5.0 12.0 0.00 0.00 0.00 70 1008.8
20210512104403 56 192 3.0 12.0 0.00 0.00 0.00 72 1008.8
20210512103903 56 181 5.0 10.0 0.00 0.00 0.00 70 1008.8
20210512103403 57 195 3.0 8.0 0.00 0.00 0.00 73 1008.8
20210512102903 56 205 5.0 9.0 0.00 0.00 0.00 74 1008.8
20210512102403 56 201 5.0 9.0 0.00 0.00 0.00 72 1008.8
20210512101903 56 208 3.0 8.0 0.00 0.00 0.00 73 1009.1
20210512101402 55 186 4.0 12.0 0.00 0.00 0.00 72 1009.1